This demonstration page uses our WeatherBlox Daily Observations layout. Learn more.

Left ArrowRight Arrow

41.55636, -103.73856

Hourly Observations for December 27, 2021

Temp ( °F °C ) Dew Point ( °F °C ) Humidity (%) Winds ( mph kmh ) Pressure ( in mb ) Visibility ( mi km ) Precip ( " mm )
12:58 am 00:58 Clear 24 -4.7 1 -17.2 37 37 W 15 24 29.82 1010 10 16 0.00 0.00
1:58 am 01:58 Clear 21 -5.9 0 -17.7 39 39 NW 14 22 29.83 1010 10 16 0.00 0.00
2:58 am 02:58 Mostly Clear 18 -7.8 -1 -18.3 43 43 NNW 9 15 29.85 1011 10 16 0.00 0.00
3:58 am 03:58 Partly Cloudy 24 -4.5 -3 -19.6 30 30 WNW 18 30 29.85 1011 10 16 0.00 0.00
4:58 am 04:58 Partly Cloudy 18 -7.7 -2 -18.9 41 41 NW 10 17 29.87 1012 10 16 0.00 0.00
5:58 am 05:58 Clear 22 -5.4 -2 -19.1 33 33 WNW 16 26 29.85 1011 10 16 0.00 0.00
6:58 am 06:58 Clear 16 -9 -2 -19 45 45 WSW 6 9 29.89 1012 10 16 0.00 0.00
7:58 am 07:58 Sunny 17 -8.2 0 -17.9 46 46 SW 8 13 29.87 1012 10 16 0.00 0.00
8:58 am 08:58 Sunny 24 -4.4 3 -16.1 40 40 SW 6 9 29.83 1010 10 16 0.00 0.00
9:58 am 09:58 Sunny 32 -0.1 7 -13.9 35 35 S 3 6 29.78 1009 10 16 0.00 0.00
10:58 am 10:58 Sunny 39 3.7 9 -12.6 30 30 SSW 22 35 29.73 1007 10 16 0.00 0.00
11:58 am 11:58 Sunny 41 4.8 9 -12.7 27 27 S 28 44 29.66 1004 10 16 0.00 0.00
12:58 pm 12:58 Sunny 39 4.1 8 -13.3 27 27 S 33 54 29.62 1003 10 16 0.00 0.00
1:58 pm 13:58 Mostly Sunny 40 4.7 7 -13.8 25 25 SSW 31 50 29.61 1003 10 16 0.00 0.00
2:58 pm 14:58 Sunny 39 4.1 7 -14.1 25 25 S 28 44 29.59 1002 10 16 0.00 0.00
3:58 pm 15:58 Mostly Sunny 37 3 5 -15 26 26 S 25 41 29.54 1001 10 16 0.00 0.00
4:58 pm 16:58 Mostly Cloudy 35 1.7 3 -16.1 26 26 S 28 44 29.54 1000 10 16 0.00 0.00
5:58 pm 17:58 Cloudy 33 0.4 1 -17.3 25 25 S 26 43 29.52 1000 10 16 0.00 0.00
6:58 pm 18:58 Mostly Cloudy 30 -1.1 -1 -18.5 26 26 S 25 41 29.50 999 10 16 0.00 0.00
7:58 pm 19:58 Clear 29 -1.8 -1 -18.5 27 27 S 22 35 29.49 999 10 16 0.00 0.00
8:58 pm 20:58 Mostly Cloudy 27 -2.7 -1 -18.3 29 29 WSW 7 11 29.49 999 10 16 0.00 0.00
9:58 pm 21:58 Cloudy 28 -2 1 -17.4 30 30 SW 15 24 29.43 997 10 16 0.00 0.00
10:58 pm 22:58 Mostly Cloudy 28 -2 3 -16.2 33 33 SSW 7 11 29.39 995 10 16 0.00 0.00
11:58 pm 23:58 Mostly Cloudy 27 -2.9 4 -15.3 38 38 SSW 10 17 29.37 995 10 16 0.00 0.00

Powered by AerisWeather